GPS BIIF-4 (PRN 27)

Last updated on Sun Dec 07 2025 00:03:19 GMT+0000 (Coordinated Universal Time)

1 39166U 13023A 25340.23367396 -.00000032 00000+0 00000+0 0 9991 2 39166 54.6578 276.8328 0137498 48.5421 312.6375 2.00565051 92017
UTC large
Height (km)
Speed (km/s)
/
Latitude / Longitude
Inclination (degrees)
Orbital Period (minutes)
Azimuth
Elevation
Range (km)
Doppler Factor

Next 0 passes for location: London (51.5072 / 0.1276)

Sorry there are no passes over London.